logo
Search for airport 
image banner adimage banner adimage banner ad
image banner ad

KAVX - Catalina

Located in Avalon, United States

ICAO - AVX, IATA - CIB

Data provided by Airmate  

General information

Coordinates: N33°24'18" W118°24'57"
Elevation is 1602 feet MSL.
Magnetic variation is 14° East
Rated:
View ratings:
[VIEW]
View others Airports in California

Operational data

Special qualification required
Current time UTC:
Current local time:
Weather
METAR: KAVX 050216Z AUTO 22005KT 1/2SM -RA FG VV003 13/13 A3008 RMK AO2 RAB10 P0000 T01330128
View NOTAMs / SUP AIP / TFR affecting this airport [VIEW]
Communications frequencies: [VIEW]

Runways:

RWY identifierQFULength (ft)Width (ft)SurfaceLDA (ft)
0455°300075CONC
22235°300075CONC

Airport contact information

Address: Avalon United States

Satellite view of KAVX